Regional Weather Roundup
Issued by NWS Pendleton, OR

Home | Current Version | Previous Version | Text Only | Print | Product List | Glossary On
Versions: 1 2 3 4 5 6 7 8 9 10 11 12 13 14 15 16 17 18 19 20 21 22 23 24 25 26 27 28 29 30 31 32 33 34 35 36 37 38 39 40 41 42 43 44 45 46 47 48 49 50
000
ASUS46 KPDT 262304
RWRPDT
PENDLETON REGIONAL WEATHER ROUNDUP
NATIONAL WEATHER SERVICE PENDLETON OREGON
400 PM PDT WED JUL 26 2017

NOTE: FAIR INDICATES FEW OR NO CLOUDS BELOW 12,000 FEET WITH NO
SIGNIFICANT WEATHER AND/OR OBSTRUCTIONS TO VISIBILITY.

# INDICATES UNOFFICIAL STATION AND DATA

WAZ520-270010-
EAST SLOPES OF WASHINGTON CASCADES

CITY            SKY/WX      TMP DP  RH  WIND    PRES   REMARKS
#BULLFROG       N/A         86  50  29  W8      N/A
#CLE ELUM HS    N/A         85  47  27  SW12    29.92S
#CLE ELUM LAKE  N/A         84  50  31  NW1     30.02S
#EASTON DOT     N/A         83  51  33  N6      N/A
#ELK HTS DOT    N/A         89  88  97  N2      N/A
#GLENWOOD       N/A         87  62  43  S7      29.88F
#NELSON 3SW     N/A         82  51  34  CALM    30.07R
#NILE           N/A         89  49  25  E1      29.14F
#TEANAWAY 4NE   N/A         90  51  26  SW2     N/A    HX 87
#TROUT LAKE 1NE N/A         87  54  32  W5      29.88F
#TROUT LAKE 1E  N/A         88  58  36  NW3     30.02S
$$

WAZ521-270010-
SIMCOE HIGHLANDS

CITY            SKY/WX      TMP DP  RH  WIND    PRES   REMARKS
#BICKLETON HS   N/A         87  50  28  SW20    29.96F
#CENTERVILLE 1SWN/A         86  47  26  W15     29.85R
#GOLDENDALE 1NE N/A         90  26  10  SW6     N/A    HX 86
#GOLDENDALE 4W  N/A         87  24  10  W7      30.01S
#GOODNOE HILLS  N/A         97  48  19  W17     N/A    HX 94
#LYLE 6NE       N/A         85  56  37  SW7     29.91F
#PITT 4SE       N/A         80  50  35  W9      29.91F
$$

WAZ026-270010-
KITTITAS VALLEY

CITY            SKY/WX      TMP DP  RH  WIND    PRES   REMARKS
ELLENSBURG AP   PTCLDY      97  43  16  E7      29.94F HX 93
#ELLENSBURG CWU N/A         92  48  22  NE3     29.79F HX 89
#ELLENSBURG 3NE N/A         90  52  27  NE1     28.02F HX 87
#ELLENSBURG 1E  N/A         94  45  19  CALM    29.88F HX 90
#KITTITAS 3S    N/A         90  46  22  CALM    29.83F HX 87
#MANASTASH RDG  N/A         91  90  97  SE12    N/A    HX 134
#ROCKY CYN DOT  N/A         97  58  28  W13     N/A    HX 97
#RYEGRASS DOT   N/A         90  51  26  SE12    N/A    HX 87
$$

WAZ027-270010-
YAKIMA VALLEY

CITY            SKY/WX      TMP DP  RH  WIND    PRES   REMARKS
SUNNYSIDE AP    N/A         87  62  43  E9      29.89F
YAKIMA AIRPORT  MOCLDY      97  47  18  SE10    29.90F HX 93
YAKIMA-VAGABOND SUNNY       93  40  16  S13     29.90F HX 89
#DONALD 2NE     N/A         98  32  10  SW3     28.77S HX 93
#GRANDVIEW      N/A         90  53  28  E1      29.85F HX 88
#MABTON         N/A         92  56  30  E12     29.86F HX 90
#MOXEE 2E       N/A         92  N/A N/A S6      29.81F
#NACHES 2SW     N/A         92  59  33  SE2     29.96F HX 91
#OUTLOOK DOT    N/A         93  49  22  E6      29.86F HX 90
#PARKER DOT     N/A         96  40  14  N5      29.91F HX 91
#TERRACE HTS    N/A         93  52  25  SW2     29.81F HX 90
#TOPPENISH      N/A         92  56  30  NW3     29.77S HX 90
#I82 S UMTANUM RN/A         94  56  28  S5      N/A    HX 92
#UNION GAP DOT  N/A         95  45  18  SE3     29.92F HX 91
#W YAKIMA       N/A         91  51  26  S3      29.84F HX 88
#WHITE SWAN 5E  N/A         93  55  28  CALM    29.85F HX 91
#WILEY CITY 3W  N/A         95  34  12  CALM    29.89F HX 90
#ZILLAH DOT     N/A         94  48  21  E9      N/A    HX 91
$$

WAZ028-270010-
LOWER COLUMBIA BASIN...WASHINGTON

CITY            SKY/WX      TMP DP  RH  WIND    PRES   REMARKS
PASCO           CLOUDY      97  45  17  S8      29.88F HX 93
PROSSER AWOS    N/A         93  50  23  SE8     29.91F HX 90
RICHLAND AWOS   CLOUDY      98  43  15  S3      29.88F HX 94
#BENTON CITY    N/A         93  48  22  SW2     29.76F HX 90
#CONNELL 5N     N/A         95  48  20  SW2     29.87F HX 91
#CONNELL 5NW    N/A         91  59  34  SW3     29.82F HX 90
#ELTOPIA 6NW    N/A         90  61  38  CALM    28.89F HX 90
#KAHLOTUS       N/A         94  44  18  W6      29.85F HX 90
#KENNEWICK 3S   N/A         94  49  22  SE3     29.86F HX 91
#PATERSON       N/A         94  52  24  SW1     29.84F HX 91
#PROSSER DOT    N/A         94  42  17  SE9     29.90F HX 90
#SAGEMOOR 2W    N/A         91  58  33  S5      29.73F HX 90
#TOUCHET 2S     N/A         100 49  18  SW3     29.84F HX 97
#WEST PASCO     N/A         96  53  24  SW2     29.88F HX 94
$$

WAZ029-270010-
FOOTHILLS OF THE BLUES...WASHINGTON

CITY            SKY/WX      TMP DP  RH  WIND    PRES   REMARKS
WALLA WALLA AP  MOCLDY      97  42  15  W8      29.93F HX 93
#CLYDE 6NW      N/A         94  42  17  SW7     29.85F HX 90
#DAYTON SCHOOL  N/A         94  39  15  SE6     29.96F HX 90
#LOWDEN 2SE     N/A         96  57  27  NW3     29.85F HX 95
#PLEASANT VIEW 1N/A         94  45  19  SW3     29.88F HX 90
#PRESCOTT       N/A         96  59  29  CALM    29.84F HX 95
#WHITMAN COLLEGEN/A         93  50  23  W2      29.90F HX 90
#WAITSBURG 5S   N/A         95  42  16  W1      29.94F HX 91
#WAITSBURG 6SSE N/A         94  40  15  SW3     29.90F HX 90
#WALLA WALLA 5E N/A         96  46  18  W7      N/A    HX 92
#WHITMAN MISSIONN/A         95  54  25  NW2     29.87F HX 93
$$

WAZ030-270010-
BLUE MOUNTAINS...WASHINGTON

CITY            SKY/WX      TMP DP  RH  WIND    PRES   REMARKS
#DIXIE 5SE      N/A         76  39  26  CALM    29.99S
$$

ORZ009-041-WAZ024-270010-
COLUMBIA RIVER GORGE

CITY            SKY/WX      TMP DP  RH  WIND    PRES   REMARKS
HOOD RIVER AP   PTCLDY      86  54  34  W7      29.96S HAZE
THE DALLES AP   PTCLDY      89  54  31  N17G26  29.90F
#ARLINGTON AIRPON/A         96  52  23  W13     29.84F HX 93
#CELILO DOT     N/A         96  57  27  W8      N/A    HX 95
#LYLE           N/A         86  58  39  W29     29.91F
#MARYHILL       N/A         94  32  11  N16     29.77F HX 89
#RUFUS DOT      N/A         96  N/A N/A W16     N/A
#SMITHVILLE     N/A         86  55  35  NW17G26 29.89F

$$

ORZ510-270010-
NORTH CENTRAL OREGON

CITY            SKY/WX      TMP DP  RH  WIND    PRES   REMARKS
#ANTELOPE       N/A         87  53  31  SW8     29.70F
#CHENOWITH 1W   N/A         81  52  37  W24     N/A
#COW CYN RST AREN/A         86  47  26  S8      N/A
#DUFUR          N/A         90  47  23  N7      29.85S HX 87
#DUFUR 9E       N/A         82  45  27  W17G25  29.92F
#GRASS VALLEY 1SN/A         88  49  26  N12     30.02F
#KENT DOT       N/A         89  54  31  SW12    N/A
#MAUPIN SCHOOL  N/A         96  54  25  N1      29.94F HX 94
#MORO SCHOOL    N/A         85  51  31  NW9     29.95F
#SHANIKO 5WSW   N/A         83  51  33  N8      N/A
#SHANIKO 4NW    N/A         83  48  30  W8      30.10F
#TYGH VALLEY 2NEN/A         95  54  25  N8      29.83F HX 93
#WAPANITIA AIRPON/A         92  49  23  NW7     29.86F HX 89
#WASCO 5NE      N/A         92  50  24  W7      29.85F HX 89
$$

ORZ511-270010-
CENTRAL OREGON

CITY            SKY/WX      TMP DP  RH  WIND    PRES   REMARKS
BEND AIRPORT    CLOUDY      90  48  24  N8      30.08F HX 87
MADRAS AIRPORT  MOCLDY      88  46  23  S7      30.03F
PRINEVILLE AP   CLOUDY      84  48  29  VRB3    30.08F
REDMOND AIRPORT CLOUDY      85  43  23  NW5     30.06F
#ASHWOOD SCHOOL N/A         87  46  24  SW6     29.98F
#BEND 1SW       N/A         82  52  35  S3      N/A
#BEND-AWBREY    N/A         84  53  34  N7      29.87S
#BEND-KIM LN    N/A         83  53  36  N1      29.83F
#CULVER         N/A         86  53  32  SE1     29.79F
#CULVER 8W      N/A         89  44  21  S6      30.04F
#LAKE BILLY CHINN/A         87  N/A N/A NW3     29.93F
#MADRAS 4S      N/A         85  25  11  S3      N/A
#POWELL BUTTE   N/A         83  46  27  NW5     30.03F
#PRINEVILLE     N/A         82  48  31  NW1     29.96F
#PRINEVILLE 3N  N/A         82  56  41  W2      29.96F
#WARM SPRINGS   N/A         95  57  28  CALM    29.75F HX 94

$$


ORZ509-270010-
EAST SLOPES OF OREGON CASCADES

CITY            SKY/WX      TMP DP  RH  WIND    PRES   REMARKS
SISTERS AWOS    N/A         82  52  35  CALM    N/A
#BLUE BOX PASS  N/A         79  N/A N/A W2      N/A
#CAMP SHERMAN   N/A         88  49  26  CALM    29.96S
#LA PINE 4NW    N/A         80  50  35  SW1     29.93F
#LAVA BUTTE DOT N/A         79  51  38  CALM    N/A
#SISTERS ODOT   N/A         81  50  34  SW2     N/A
#SISTERS 3N     N/A         84  54  36  S3      29.98S
#SUNRIVER       N/A         82  53  37  SW1     30.05F
#TUMALO 3W      N/A         80  51  36  N5      29.76F
#WANOGA BUTTE D N/A         68  47  47  W6      N/A

$$

ORZ044-270010-
LOWER COLUMBIA BASIN...OREGON

CITY            SKY/WX      TMP DP  RH  WIND    PRES   REMARKS
HERMISTON       CLOUDY      97  46  18  VRB5    29.89F HX 93
#BOARDMAN SCHOOLN/A         95  49  21  S6      29.86F HX 92
#BOARDMAN 8SW   N/A         95  52  24  SW2     29.85F HX 92
#ECHO 8SW       N/A         94  54  26  N2      29.91F HX 92
#I-84 EX 198 DOTN/A         93  61  35  E9      N/A    HX 93
#IONE SCHOOL    N/A         92  46  21  N1      29.86F HX 88
#UMATILLA       N/A         97  53  23  CALM    29.79F HX 95
$$

ORZ507-270010-
NORTHERN FOOTHILLS OF THE BLUES

CITY            SKY/WX      TMP DP  RH  WIND    PRES   REMARKS
PENDLETON AIRPT MOCLDY      97  45  17  W10     29.94F HX 93
#ADAMS 3WNW     N/A         93  48  22  NW6     29.85F HX 90
#ATHENA         N/A         93  47  21  CALM    29.90F HX 89
#CAYUSE         N/A         90  47  23  W7      29.85F HX 87
#HELIX SCHOOL   N/A         91  47  22  SW1     29.88F HX 88
#HELIX 3N       N/A         90  45  21  W8      29.96F HX 86
#HOLDMAN 6E     N/A         92  51  25  W7      29.68F HX 89
#M-F GROVE ELEM N/A         94  47  20  N1      29.91F HX 90
#M-FREEWATER 5SEN/A         92  59  33  CALM    29.93F HX 91
#PENDLETON DNTN N/A         94  50  23  CALM    29.92S HX 91
#PDT AQUATIC CTRN/A         95  55  26  W7      29.93F HX 93
#PDT SUNRIDGE   N/A         94  53  25  W1      29.94F HX 91
#PENDLETON 7NW  N/A         91  58  33  W3      29.95F HX 90
#PILOT ROCK 1S  N/A         89  51  27  N2      29.98F
#PILOT ROCK     N/A         92  52  26  CALM    29.98F HX 89
#TUTUILLA       N/A         93  53  26  NW1     29.98F HX 91
#UMAPINE 2E     N/A         96  56  26  NW1     29.87F HX 94
#WESTON SCHOOL  N/A         91  40  17  N2      29.85F HX 87

$$

ORZ508-270010-
SOUTHERN FOOTHILLS OF THE BLUES

CITY            SKY/WX      TMP DP  RH  WIND    PRES   REMARKS
LEXINGTON       MOCLDY      91  45  20  VRB3    29.98F HX 87
#AJAX           N/A         89  45  22  S13     30.14S
#CONDON 5W      N/A         84  43  24  SW10    30.05F
#FOSSIL SCHOOL  N/A         86  46  25  W9      29.97F
#HEPPNER EOC    N/A         89  49  25  NW5     29.80F
#HEPPNER 4NE    N/A         86  48  27  NW3     29.86F
#LEXINGTON 2SE  N/A         92  49  23  CALM    29.90F HX 89
#MIKKALO        N/A         92  46  21  E1      30.08F HX 88
#OLEX 4N        N/A         93  52  25  CALM    29.90F HX 90
#RUGGS 5NE      N/A         88  44  22  W9      30.20S
#RUGGS 2SW      N/A         88  49  26  NW7     29.86F

$$

ORZ502-503-270010-
BLUE MOUNTAINS

CITY            SKY/WX      TMP DP  RH  WIND    PRES   REMARKS
MEACHAM         MOCLDY      85  31  14  MISG    30.10S
#BATTLE MTN DOT N/A         83  49  31  N3      N/A
#GRANITE        N/A         69  61  76  CALM    29.80R
#HEPPNER 15SE   N/A         84  48  29  N7      29.94F
#LADD CYN SMT   N/A         88  51  28  N3      N/A
#LADD CREEK ODOTN/A         87  52  30  NE6     N/A
#LONG CREEK HS  N/A         85  43  23  CALM    N/A
#N POWDER DOT   N/A         85  56  37  W7      N/A
#PIKES PEAK     N/A         84  44  25  N2      27.99S
#TOLLGATE       N/A         75  43  32  CALM    30.03S
#TROY SCHOOL    N/A         94  45  19  S1      29.71S HX 90
#UKIAH          N/A         87  48  26  W6      29.81F
#WESTON 4E      N/A         90  41  18  W1      29.84F HX 86
$$

ORZ505-270010-
JOHN DAY BASIN

CITY            SKY/WX      TMP DP  RH  WIND    PRES   REMARKS
JOHN DAY        MOCLDY      87  43  22  CALM    30.07S
#JOHN DAY KJDY  N/A         92  N/A N/A W5      30.91R
#ANTELOPE 9ESE  N/A         94  48  21  NW6     N/A    HX 91
#DAYVILLE SCHOOLN/A         92  44  19  N6      29.93F HX 88
#MITCHELL       N/A         88  54  31  CALM    30.19F
#MITCHELL 8NW   N/A         89  41  19  W2      29.90F
#MONUMENT HS    N/A         95  45  18  NE5     29.91F HX 91
#MT. VERNON 5SE N/A         84  44  25  CALM    30.03S
#SPRAY SCHOOL   N/A         95  N/A N/A CALM    N/A
$$

ORZ506-270010-
OCHOCO AND JOHN DAY HIGHLANDS

CITY            SKY/WX      TMP DP  RH  WIND    PRES   REMARKS
#HORSE RIDGE DO N/A         78  48  35  N5      N/A
#IZEE 6NW       N/A         92  44  19  E6      N/A    HX 88
#PAULINA ODOT   N/A         88  39  18  W8      N/A
#PINE MTN OBS   N/A         70  45  41  W3      N/A
#PRAIRIE CITY   N/A         83  52  34  CALM    30.19F
#SENECA         N/A         83  N/A N/A N7      N/A
#SENECA 9NW     N/A         66  56  70  CALM    29.82R
$$

ORZ049-270010-
GRANDE RONDE VALLEY

CITY            SKY/WX      TMP DP  RH  WIND    PRES   REMARKS
LA GRANDE       MOCLDY      90  43  20  CALM    30.03F HX 86
#COVE           N/A         89  53  29  CALM    30.06F
#COVE SCHOOL    N/A         89  47  24  CALM    30.05F
#COVE 6NW       N/A         88  50  27  N3      29.88F
#ELGIN 3N       N/A         88  40  19  W3      30.00F
#ELGIN 1E       N/A         88  44  22  CALM    N/A
#IMBLER SCHOOL  N/A         87  41  20  CALM    29.99F
#ISLAND CITY 4N N/A         86  58  39  CALM    30.02F
#LA GRANDE-LEFFEN/A         96  46  18  S3      30.03F HX 92
#UNION 1S       N/A         90  49  25  NW3     29.88S HX 87
$$

ORZ050-270010-
WALLOWA COUNTY

CITY            SKY/WX      TMP DP  RH  WIND    PRES   REMARKS
#ENTERPRISE HS  N/A         84  47  28  CALM    29.78F
#IMNAHA SCHOOL  N/A         95  43  17  E3      29.95F HX 91
#IMNAHA 10S     N/A         91  44  20  S7      30.00F HX 87
#JOSEPH         N/A         81  38  21  N5      30.05F
#JOSEPH 3N      N/A         82  42  24  N2      30.12F
#JOSEPH 3W      N/A         80  53  39  CALM    N/A
#LOSTINE        N/A         85  46  26  NE1     29.70F
#LOSTINE 3SE    N/A         88  44  22  E1      30.12F
#MT HOWARD 8000 N/A         65  42  43  N1      30.41F
#PROMISE 1S     N/A         83  47  28  S2      29.99F
#WALLOWA LAKE   N/A         87  50  28  N1      30.17F
#WALLOWA SCHOOL N/A         89  45  22  CALM    30.00F



$$



USA.gov is the U.S. government's official web portal to all federal, state and local government web resources and services.